www.pogodaiklimat.ru

Погода и климат >> Архив погоды >> Мексика >> Sombrerete


ПОГОДА в Sombrerete

  • Прогноз погоды в Sombrerete
  • Монитор погоды в Sombrerete
  • Климат города

АРХИВ ПОГОДЫ в Sombrerete

Время (UTC), дата Ветер
(напр.,м/с)
 
Видим.   Явления Облачность Т
(С)
Тd
(С)
f
(%)
Тe
(С)
Тes
(С)
Комфортность P
(гПа)
Po
(гПа)
Тmin
(С)
Tmax
(С)
R
(мм)
R24
(мм)
S
(см)
12 17.11 штиль 0 16 км ясно +9.8 +2.7 61 +9 +9 1013.0 771.6 +7.8
15 17.11 штиль 0 16 км ясно +14.4 +3.2 47 +14 +17 1015.9 772.9
18 17.11 СЗ 1 16 км ясно +25.1 +4.1 26 +24 +37 комфорт 1014.1 772.9 +7.3 +25.1
21 17.11 З 1 16 км ясно +26.2 -1.1 17 +24 +33 комфорт 1008.1 770.5
00 18.11 С 1 16 км ясно +22.2 -0.7 22 +21 +22 комфорт 1004.6 770.0 +7.3 +27.0
03 18.11 штиль 0 16 км ясно +16.2 +3.9 44 +16 +16 1005.3 771.4
06 18.11 штиль 0 16 км ясно +12.8 +2.9 51 +13 +13 1007.0 771.5 +7.3 +27.0
12 18.11 штиль 0 16 км ясно +10.2 +4.9 70 +10 +10 1011.5 770.3 +8.2
15 18.11 штиль 0 16 км ясно +14.4 +6.2 58 +14 +17 1014.4 771.5
18 18.11 С 2 16 км ясно +23.2 +7.1 35 +24 +35 комфорт 1012.2 771.1 +7.8 +23.2
21 18.11 С 2 16 км ясно +24.8 +2.9 24 +24 +32 комфорт 1006.6 769.0
00 19.11 С 1 16 км ясно +21.8 +4.6 32 +22 +22 комфорт 1004.1 769.2 +7.8 +26.6
12 19.11 штиль 0 16 км ясно +9.4 +0.1 52 +9 +9 1011.5 770.2 +8.0 +26.6
15 19.11 В 1 16 км ясно +13.4 +0.7 42 +14 +16 1014.6 771.4
18 19.11 ЮЗ 1 16 км ясно +21.6 +3.3 30 +22 +34 комфорт 1013.0 771.2 +7.6 +21.6
12 20.11 З 1 16 км ясно +9.4 +4.1 69 +9 +9 1010.7 769.4 +7.6 +26.0
15 20.11 штиль 0 16 км ясно +14.5 +3.8 49 +14 +17 1013.9 770.9
18 20.11 З 3 16 км ясно +22.6 +1.8 25 +22 +31 комфорт 1012.3 770.9 +7.2 +22.6
21 20.11 СЗ 3 16 км ясно +22.0 -0.4 22 +21 +28 комфорт 1007.1 769.0
00 21.11 СЗ 2 16 км ясно +19.3 +0.3 28 +20 +20 1004.0 768.4 +7.2 +26.0
03 21.11 СЗ 2 16 км ясно +14.4 +4.2 50 +14 +14 1004.6 769.6
06 21.11 СЗ 1 16 км ясно +11.8 +1.2 48 +12 +12 1007.5 770.3 +7.2 +26.0
12 21.11 штиль 0 16 км ясно +6.0 +2.3 77 +5 +5 1011.7 769.0 +4.2 +26.0
15 21.11 штиль 0 16 км ясно +10.1 +2.4 59 +10 +12 1014.9 770.1
18 21.11 С 1 16 км 6/0
[Ci fib]
+20.3 +3.0 32 +22 +33 комфорт 1013.4 770.0 +3.8 +20.3
21 21.11 С 2 16 км 8/0
[Cs]
+22.5 -3.7 17 +21 +27 комфорт 1008.0 768.1
00 22.11 С 1 16 км 6/0
[Ci fib]
+18.5 -2.9 23 +20 +20 1005.6 768.4 +3.8 +24.9
03 22.11 штиль 0 16 км 6/0
[Ci fib]
+12.4 0.0 42 +12 +12 1006.3 770.0
06 22.11 С 2 16 км ясно +10.4 -0.3 47 +9 +9 1008.5 770.3 +3.8 +24.9
12 22.11 С 1 16 км ясно +5.8 -2.4 56 +5 +5 1016.1 771.6 +4.6 +24.9
15 22.11 С 2 16 км ясно +8.5 -0.6 53 +7 +9 1019.8 773.1
18 22.11 С 3 16 км ясно +14.2 -2.0 33 +14 +22 1019.1 773.0 +3.6 +14.2
21 22.11 С 2 16 км ясно +16.0 -7.1 20 +16 +24 1015.4 771.3
00 23.11 С 2 16 км 6/0
[Cs]
+13.0 -9.2 20 +13 +13 1014.1 771.5 +3.6 +16.9
03 23.11 С 2 16 км 8/0
[Cs]
+7.4 -2.9 48 +6 +6 1015.4 772.9
06 23.11 штиль 0 16 км 6/0
[Cs]
+4.4 -3.7 56 +4 +4 1017.2 772.9 +3.6 +16.9
12 23.11 штиль 0 16 км ясно +1.6 -5.1 61 +1 +1 1021.2 771.4 +0.5 +16.9
15 23.11 штиль 0 16 км ясно +6.1 -2.2 55 +6 +8 1023.3 772.1
18 23.11 С 2 16 км ясно +12.6 -0.8 40 +12 +23 опасность
простуды
1021.4 771.7 +0.5 +22.6
21 23.11 С 1 16 км ясно +16.1 -9.9 16 +17 +26 1016.1 769.8
00 24.11 С 1 16 км ясно +14.0 -9.1 19 +15 +15 1012.8 769.7 +0.5 +17.3
03 24.11 В 1 16 км ясно +8.2 -3.4 44 +8 +8 1012.8 770.7
06 24.11 штиль 0 16 км ясно +5.2 -4.9 48 +5 +5 1013.8 770.6 +0.5 +17.3

 

Местоположение метеостанции Sombrerete (Мексика): широта 23.63 долгота -103.60 высота над уровнем моря 2351 м.

В архиве по умолчанию представлена погода в Sombrerete за последнюю неделю. Архивные данные за месяц целиком и за предыдущие месяцы, начиная с января 2011 года, Вы можете получить, выбрав интересующий диапазон дат из раскрывающегося списка и нажав кнопку "Ввод!".

Внимание! Время в таблицах - всемирное. Для получения местного времени необходимо прибавить поправку, которая в Sombrerete равна -6 ч.

Смотрите также архив погоды в соседних городах и на ближайших метеорологических станциях:

Погода в Durango (Мексика) (112 км)
Погода в Huejucar (Мексика) (141 км)
Погода в Zacatecas (Мексика) (147 км)
Погода в Colotlan (Мексика) (174 км)
Погода в Torreon (Мексика) (212 км)
Погода в Aguascalientes (Мексика) (237 км)
Погода в Tepic (Мексика) (265 км)
Погода в Tepehuanes (Мексика) (287 км)
Погода в Mazatlan (Мексика) (290 км)
Погода в Lagos De Moreno (Мексика) (307 км)

Пояснения к столбцам:

Ветер - указаны скорость ветра в м/с - средняя за 10 мин, порывы в срок и между сроками (в фигурных скобках) и направление, откуда дует ветер: С - северный, СВ - северо-восточный, В - восточный, ЮВ - юго-восточный, Ю - южный, ЮЗ - юго-западный, З - западный, СЗ - северо-западный.
Видимость - горизонтальная дальность видимости в метрах или километрах. При видимости от 1 до 10 км при отсутствии осадков обычно наблюдается дымка, при ухудшении видимости до 1 км и менее - туман. В сухую погоду видимость может ухудшаться дымом, пылью или мглою.
Явления - указаны атмосферные явления, наблюдавшиеся в срок или в последний час перед сроком; фигурными скобками обозначены явления, наблюдавшиеся между сроками (за 1-3 часа до срока); квадратными скобками обозначены град или гололедные отложения с указанием их диаметра в мм.
Облачность - указаны через наклонную черту общая и нижняя облачность в баллах и высота нижней границы облаков в метрах; квадратными скобками обозначены формы облаков: Ci - перистые, Cs - перисто-слоистые, Cc - перисто-кучевые, Ac - высококучевые, As - высокослоистые, Sc - слоисто-кучевые, Ns - слоисто-дождевые, Cu - кучевые, Cb - кучево-дождевые. Подробнее классификацию облаков см. в Атласе облаков (PDF).
T - Температура воздуха - температура, измеренная на высоте 2 м над землей.
Td - Температура точки росы - температура, при понижении до которой содержащийся в воздухе водяной пар достигнет насыщения.
f - Относительная влажность воздуха - влажноcть воздуха, измеренная на высоте 2 м над землей.
Te - Эффективная температура - температура, которую ощущает одетый по сезону человек в тени. Характеристика душности погоды. При расчете учитывается влияние влажности воздуха и скорости ветра на теплоощущения человека.
Tes - Эффективная температура на солнце - температура, которую ощущает человек, с поправкой на солнечный нагрев. Характеристика знойности погоды. Зависит от высоты солнца над горизонтом, облачности и скорости ветра. Ночью, в пасмурную погоду, а также при ветре 12 м/с и более поправка равна нулю.
P - Атмосферное давление - приведенное к уровню моря атмосферное давление.
Po - Атмосферное давление - измеренное на уровне метеостанции атмосферное давление.
Tmin - Минимальная температура - минимум температуры воздуха на высоте 2 м над землей.
Tmax - Максимальная температура - максимум температуры воздуха на высоте 2 м над землей.
R - Количество осадков - Количество выпавших осадков за период времени, мм. При наведении курсора мыши на число - период времени, за который выпало указанное количество осадков.
R24 - Количество осадков - Количество выпавших осадков за 24 часа, мм.
S - Снежный покров - Высота снежного покрова, см. При наведении курсора мыши на число - состояние снежного покрова и степень покрытия местности в баллах.